EW7119 Weather Reports


Display with metric or nautical units.
time (UTC)temp
F
wind
direction
speed
MPH
gust
MPH
rain 1hr
in
rain 24hr
in
rain mn
in
humidity
%
barometer
mb
20260504044604 42 63 0.0 0.0 0.00 0.00 0.00 42 1004.8
20260504043108 43 46 0.0 0.0 0.00 0.00 0.00 42 1005.0
20260504041556 44 338 0.0 0.0 0.00 0.00 0.00 41 1005.0
20260504040116 44 338 0.0 0.0 0.00 0.00 0.00 39 1005.0
20260504034634 45 338 0.0 0.0 0.00 0.00 0.00 40 1005.1
20260504033056 45 338 0.0 2.0 0.00 0.00 0.00 39 1005.0
20260504031517 45 338 0.0 1.0 0.00 0.00 0.00 36 1005.1
20260504030007 46 338 0.0 2.0 0.00 0.00 0.00 39 1005.0
20260504024511 46 338 0.0 5.0 0.00 0.00 0.00 37 1004.9
20260504023002 47 343 0.0 0.0 0.00 0.00 0.00 35 1004.7
20260504021609 48 343 0.0 0.0 0.00 0.00 0.00 33 1004.5
20260504020108 49 343 0.0 0.0 0.00 0.00 0.00 35 1004.4
20260504014607 50 336 1.0 5.0 0.00 0.00 0.00 32 1004.2
20260504013057 51 351 1.0 6.0 0.00 0.00 0.00 29 1004.3
20260504011511 52 297 2.0 8.0 0.00 0.00 0.00 27 1004.2
20260504010009 52 300 2.0 5.0 0.00 0.00 0.00 31 1004.3
20260504004516 53 47 0.0 2.0 0.00 0.00 0.00 28 1004.5
20260504003017 54 239 1.0 7.0 0.00 0.00 0.00 29 1004.4
20260504001505 54 267 1.0 7.0 0.00 0.00 0.00 25 1004.4
20260504000017 54 323 1.0 5.0 0.00 0.00 0.00 26 1004.5
20260503234538 53 317 3.0 13.0 0.00 0.00 0.00 24 1004.5
20260503233041 53 294 0.0 4.0 0.00 0.00 0.00 27 1004.6
20260503231540 55 255 1.0 7.0 0.00 0.00 0.00 25 1004.5
20260503230126 56 255 2.0 5.0 0.00 0.00 0.00 28 1004.4
20260503224514 55 276 3.0 10.0 0.00 0.00 0.00 25 1004.6
20260503223051 54 301 3.0 7.0 0.00 0.00 0.00 26 1004.9
20260503221608 55 265 2.0 6.0 0.00 0.00 0.00 26 1005.0
20260503220111 56 275 4.0 8.0 0.00 0.00 0.00 26 1005.3
20260503214621 56 249 2.0 8.0 0.00 0.00 0.00 26 1005.6
20260503213001 54 226 2.0 10.0 0.00 0.00 0.00 25 1006.2
20260503211620 54 262 2.0 6.0 0.00 0.00 0.00 29 1006.3
20260503210035 56 179 2.0 8.0 0.00 0.00 0.00 25 1006.6
20260503204552 54 261 0.0 9.0 0.00 0.00 0.00 28 1007.0
20260503203051 55 271 5.0 10.0 0.00 0.00 0.00 23 1007.3
20260503201547 56 182 2.0 7.0 0.00 0.00 0.00 30 1007.5
20260503200052 55 131 3.0 9.0 0.00 0.00 0.00 25 1007.6
20260503194554 53 146 0.0 6.0 0.00 0.00 0.00 28 1007.9
20260503193113 54 153 2.0 7.0 0.00 0.00 0.00 30 1008.1
20260503191620 54 166 2.0 6.0 0.00 0.00 0.00 29 1008.4
20260503190111 53 123 1.0 7.0 0.00 0.00 0.00 31 1008.6
20260503184622 53 247 2.0 8.0 0.00 0.00 0.00 29 1009.0
20260503183114 52 163 2.0 6.0 0.00 0.00 0.00 35 1009.4
20260503181600 53 299 2.0 9.0 0.00 0.00 0.00 28 1009.7
20260503180109 52 261 2.0 6.0 0.00 0.00 0.00 33 1010.1
20260503174502 52 320 2.0 7.0 0.00 0.00 0.00 34 1010.3
20260503173008 51 284 2.0 8.0 0.00 0.00 0.00 31 1010.6
20260503171531 50 329 2.0 9.0 0.00 0.00 0.00 32 1010.8
20260503150113 46 330 1.0 5.0 0.00 0.00 0.00 39 1012.2
20260503140121 42 5 0.0 0.0 0.00 0.00 0.00 45 1012.4
20260503100110 37 118 1.0 4.0 0.00 0.00 0.00 47 1013.5
20260503081546 36 118 0.0 0.0 0.00 0.00 0.00 47 1014.1
20260503071613 36 118 0.0 0.0 0.00 0.00 0.00 49 1014.6
20260503070124 37 118 0.0 0.0 0.00 0.00 0.00 48 1014.6